TimeMDT,TemperatureF,Dew PointF,Humidity,Sea Level PressureIn,VisibilityMPH,Wind Direction,Wind SpeedMPH,Gust SpeedMPH,PrecipitationIn,Events,Conditions,WindDirDegrees,DateUTC
12:53 AM,64.9,55.9,73,30.09,10.0,SE,16.1,-,0.00,Rain,Light Rain,130,2013-07-17 06:53:00
1:53 AM,66.0,53.1,63,30.10,10.0,East,16.1,-,0.00,Rain,Light Rain,100,2013-07-17 07:53:00
2:53 AM,66.0,55.0,68,30.09,10.0,ESE,10.4,-,0.00,,Overcast,110,2013-07-17 08:53:00
3:53 AM,64.0,55.0,73,30.10,10.0,East,8.1,-,N/A,,Partly Cloudy,80,2013-07-17 09:53:00
4:53 AM,63.0,55.0,75,30.12,10.0,East,10.4,-,N/A,,Overcast,90,2013-07-17 10:53:00
5:53 AM,64.9,48.9,56,30.12,10.0,East,13.8,-,N/A,,Overcast,100,2013-07-17 11:53:00
6:53 AM,64.9,48.0,54,30.14,10.0,East,8.1,-,N/A,,Mostly Cloudy,100,2013-07-17 12:53:00
7:53 AM,68.0,50.0,52,30.15,10.0,ESE,10.4,-,N/A,,Scattered Clouds,110,2013-07-17 13:53:00
8:53 AM,69.1,48.0,47,30.16,10.0,ESE,9.2,19.6,N/A,,Clear,110,2013-07-17 14:53:00
9:53 AM,73.0,48.9,42,30.16,10.0,East,10.4,-,N/A,,Scattered Clouds,80,2013-07-17 15:53:00
10:53 AM,77.0,48.0,36,30.14,10.0,ESE,11.5,18.4,N/A,,Partly Cloudy,110,2013-07-17 16:53:00
11:53 AM,80.1,46.0,30,30.12,10.0,Variable,5.8,-,N/A,,Partly Cloudy,0,2013-07-17 17:53:00
12:53 PM,81.0,46.0,29,30.12,10.0,SE,8.1,-,N/A,,Clear,140,2013-07-17 18:53:00
1:53 PM,82.9,45.0,26,30.08,10.0,Variable,3.5,-,N/A,,Clear,0,2013-07-17 19:53:00
2:53 PM,84.9,45.0,25,30.05,10.0,Variable,4.6,-,N/A,,Clear,0,2013-07-17 20:53:00
3:53 PM,86.0,44.1,23,30.03,10.0,SSE,11.5,-,N/A,,Clear,150,2013-07-17 21:53:00
4:53 PM,84.9,43.0,23,30.02,10.0,SSE,5.8,-,N/A,,Clear,160,2013-07-17 22:53:00
5:53 PM,87.1,41.0,20,29.99,10.0,South,5.8,-,N/A,,Clear,180,2013-07-17 23:53:00
6:53 PM,86.0,39.9,20,29.98,10.0,South,9.2,-,N/A,,Clear,170,2013-07-18 00:53:00
7:53 PM,82.9,42.1,24,29.99,10.0,WSW,8.1,-,N/A,,Mostly Cloudy,250,2013-07-18 01:53:00
8:53 PM,81.0,42.1,25,30.02,10.0,South,9.2,17.3,N/A,,Scattered Clouds,170,2013-07-18 02:53:00
9:53 PM,79.0,42.1,27,30.03,10.0,SSE,13.8,19.6,N/A,,Clear,160,2013-07-18 03:53:00
10:53 PM,75.9,43.0,31,30.05,10.0,ESE,9.2,18.4,N/A,,Clear,110,2013-07-18 04:53:00
11:53 PM,73.0,44.1,35,30.07,10.0,East,5.8,-,N/A,,Clear,90,2013-07-18 05:53:00